CW8443 Weather Reports


Display with metric or nautical units.
time (UTC)temp
F
wind
direction
speed
MPH
gust
MPH
rain 1hr
in
rain 24hr
in
rain mn
in
humidity
%
barometer
mb
20210928073745 76 288 5.0 0.0 0.00 0.00 0.00 53 1012.2
20210928071750 77 281 7.0 0.0 0.00 0.00 0.00 53 1012.1
20210928071237 77 305 7.0 0.0 0.00 0.00 0.00 52 1012.1
20210928065736 78 278 4.0 0.0 0.00 0.00 0.00 50 1012.1
20210928065245 79 289 2.0 0.0 0.00 0.00 0.00 49 1012.1
20210928064739 79 231 1.0 0.0 0.00 0.00 0.00 48 1012.1
20210928064249 79 228 2.0 0.0 0.00 0.00 0.00 48 1012.1
20210928063739 79 244 2.0 0.0 0.00 0.00 0.00 47 1012.1
20210928063240 80 257 1.0 0.0 0.00 0.00 0.00 47 1012.1
20210928063145 80 257 1.0 0.0 0.00 0.00 0.00 47 1012.1
20210928062746 80 230 1.0 0.0 0.00 0.00 0.00 46 1012.1
20210928061749 80 240 1.0 0.0 0.00 0.00 0.00 46 1012.1
20210928060737 81 241 0.0 0.0 0.00 0.00 0.00 44 1011.8
20210928060238 81 238 1.0 0.0 0.00 0.00 0.00 43 1011.8
20210928060143 81 238 1.0 0.0 0.00 0.00 0.00 43 1011.8
20210928054746 80 268 1.0 0.0 0.00 0.00 0.00 45 1012.0
20210928053242 78 207 1.0 0.0 0.00 0.00 0.00 47 1012.2
20210928052750 78 236 0.0 0.0 0.00 0.00 0.00 48 1012.2
20210928045244 76 269 2.0 0.0 0.00 0.00 0.00 53 1012.4
20210928043739 77 286 2.0 0.0 0.00 0.00 0.00 51 1012.7
20210928043141 77 250 1.0 0.0 0.00 0.00 0.00 52 1012.7
20210928041747 76 212 1.0 0.0 0.00 0.00 0.00 53 1012.8
20210928040751 76 264 3.0 0.0 0.00 0.00 0.00 52 1013.1
20210928040244 76 264 4.0 0.0 0.00 0.00 0.00 52 1013.1
20210928040132 76 264 4.0 0.0 0.00 0.00 0.00 52 1013.1
20210928035750 77 300 3.0 0.0 0.00 0.00 0.00 51 1013.2
20210928035240 77 206 1.0 0.0 0.00 0.00 0.00 52 1013.2
20210928033736 77 265 4.0 0.0 0.00 0.00 0.00 51 1013.3
20210928033253 77 308 3.0 0.0 0.00 0.00 0.00 51 1013.3
20210928032740 77 316 4.0 0.0 0.00 0.00 0.00 52 1013.7
20210928032250 77 276 4.0 0.0 0.00 0.00 0.00 51 1013.7
20210928031743 78 300 2.0 0.0 0.00 0.00 0.00 50 1013.7
20210928031235 77 262 2.0 0.0 0.00 0.00 0.00 50 1013.9
20210928030749 77 245 1.0 0.0 0.00 0.00 0.00 51 1013.9
20210928030250 77 227 2.0 0.0 0.00 0.00 0.00 52 1013.9
20210928025736 76 289 4.0 0.0 0.00 0.00 0.00 53 1014.2
20210928025244 76 276 3.0 0.0 0.00 0.00 0.00 53 1014.2
20210928024740 75 228 2.0 0.0 0.00 0.00 0.00 54 1014.2
20210928024249 75 219 2.0 0.0 0.00 0.00 0.00 54 1014.2
20210928023142 75 210 3.0 0.0 0.00 0.00 0.00 54 1014.2
20210928022743 74 219 3.0 0.0 0.00 0.00 0.00 53 1014.3
20210928022253 74 269 3.0 0.0 0.00 0.00 0.00 53 1014.3
20210928021743 74 240 3.0 0.0 0.00 0.00 0.00 54 1014.3
20210928021253 73 227 3.0 0.0 0.00 0.00 0.00 56 1014.5
20210928020749 73 202 2.0 0.0 0.00 0.00 0.00 56 1014.5
20210928020248 73 207 2.0 0.0 0.00 0.00 0.00 57 1014.5
20210928020131 73 210 2.0 0.0 0.00 0.00 0.00 57 1014.5
20210928015752 73 223 2.0 0.0 0.00 0.00 0.00 57 1014.6
20210928015242 73 237 2.0 0.0 0.00 0.00 0.00 56 1014.6
20210928013735 73 262 2.0 0.0 0.00 0.00 0.00 55 1014.8
20210928013255 73 233 2.0 0.0 0.00 0.00 0.00 55 1014.8
20210928010752 73 195 2.0 0.0 0.00 0.00 0.00 55 1014.9
20210928010255 73 204 1.0 0.0 0.00 0.00 0.00 56 1014.9
20210928005253 72 210 2.0 0.0 0.00 0.00 0.00 58 1014.9
20210928004747 72 213 2.0 0.0 0.00 0.00 0.00 58 1014.9
20210928004237 71 209 2.0 0.0 0.00 0.00 0.00 59 1015.0
20210928003748 71 234 2.0 0.0 0.00 0.00 0.00 59 1015.0
20210928002736 70 224 2.0 0.0 0.00 0.00 0.00 59 1015.3
20210928001736 70 230 2.0 0.0 0.00 0.00 0.00 59 1015.3
20210928001248 70 214 3.0 0.0 0.00 0.00 0.00 59 1015.2
20210928000748 70 245 3.0 0.0 0.00 0.00 0.00 59 1015.2
20210928000249 70 269 2.0 0.0 0.00 0.00 0.00 60 1015.2
20210927235754 70 230 2.0 0.0 0.00 0.00 0.00 61 1015.2
20210927235242 70 212 2.0 0.0 0.00 0.00 0.00 61 1015.2
20210927234738 70 212 2.0 0.0 0.00 0.00 0.00 61 1015.2
20210927234247 70 209 3.0 0.0 0.00 0.00 0.00 62 1015.2
20210927233737 69 200 3.0 0.0 0.00 0.00 0.00 62 1015.2
20210927233240 69 223 3.0 0.0 0.00 0.00 0.00 64 1015.2
20210927233144 69 223 3.0 0.0 0.00 0.00 0.00 64 1015.2
20210927232742 69 207 2.0 0.0 0.00 0.00 0.00 65 1015.2
20210927232252 68 244 2.0 0.0 0.00 0.00 0.00 66 1015.2
20210927230139 67 241 3.0 0.0 0.00 0.00 0.00 67 1015.3
20210927224746 67 220 2.0 0.0 0.00 0.00 0.00 68 1015.1
20210927224236 67 207 2.0 0.0 0.00 0.00 0.00 69 1015.1
20210927223242 66 207 3.0 0.0 0.00 0.00 0.00 71 1015.1
20210927223130 66 206 3.0 0.0 0.00 0.00 0.00 71 1015.1
20210927220736 64 209 1.0 0.0 0.00 0.00 0.00 76 1014.7
20210927220256 64 203 1.0 0.0 0.00 0.00 0.00 77 1014.7
20210927215742 63 204 0.0 0.0 0.00 0.00 0.00 79 1014.8
20210927214746 63 204 1.0 0.0 0.00 0.00 0.00 80 1014.8
20210927214236 62 206 2.0 0.0 0.00 0.00 0.00 80 1014.8
20210927213746 62 189 1.0 0.0 0.00 0.00 0.00 81 1014.8
20210927213242 62 173 1.0 0.0 0.00 0.00 0.00 82 1014.8
20210927211752 61 190 1.0 0.0 0.00 0.00 0.00 83 1014.8
20210927211246 61 204 1.0 0.0 0.00 0.00 0.00 83 1014.8
20210927210744 61 210 0.0 0.0 0.00 0.00 0.00 83 1014.8
20210927210129 61 210 0.0 0.0 0.00 0.00 0.00 83 1014.8
20210927205751 61 210 1.0 0.0 0.00 0.00 0.00 83 1015.0
20210927205241 61 210 1.0 0.0 0.00 0.00 0.00 83 1015.0
20210927204752 61 213 0.0 0.0 0.00 0.00 0.00 82 1015.0
20210927204242 61 213 0.0 0.0 0.00 0.00 0.00 82 1014.9
20210927203752 61 213 0.0 0.0 0.00 0.00 0.00 82 1014.9
20210927203137 61 213 0.0 0.0 0.00 0.00 0.00 82 1014.9
20210927202741 61 213 0.0 0.0 0.00 0.00 0.00 82 1014.8
20210927202254 61 213 0.0 0.0 0.00 0.00 0.00 82 1014.8
20210927200752 61 214 0.0 0.0 0.00 0.00 0.00 81 1014.9
20210927200251 61 213 0.0 0.0 0.00 0.00 0.00 81 1014.9
20210927195741 61 213 0.0 0.0 0.00 0.00 0.00 81 1014.8
20210927193245 62 213 0.0 0.0 0.00 0.00 0.00 80 1014.7
20210927193129 62 213 0.0 0.0 0.00 0.00 0.00 80 1014.7
20210927192750 62 213 0.0 0.0 0.00 0.00 0.00 80 1014.4
20210927192241 62 214 0.0 0.0 0.00 0.00 0.00 80 1014.4
20210927191241 62 213 0.0 0.0 0.00 0.00 0.00 79 1014.4
20210927190240 62 213 0.0 0.0 0.00 0.00 0.00 79 1014.4
20210927190145 62 213 0.0 0.0 0.00 0.00 0.00 79 1014.4
20210927185743 62 214 0.0 0.0 0.00 0.00 0.00 79 1014.3
20210927183747 63 213 0.0 0.0 0.00 0.00 0.00 79 1014.3
20210927183130 63 214 1.0 0.0 0.00 0.00 0.00 79 1014.3
20210927182752 63 213 1.0 0.0 0.00 0.00 0.00 79 1014.2
20210927180241 63 212 1.0 0.0 0.00 0.00 0.00 78 1014.0
20210927175747 63 212 2.0 0.0 0.00 0.00 0.00 78 1014.1
20210927175237 63 210 1.0 0.0 0.00 0.00 0.00 78 1014.1
20210927173751 64 212 1.0 0.0 0.00 0.00 0.00 78 1014.3
20210927173251 64 212 1.0 0.0 0.00 0.00 0.00 78 1014.3
20210927173135 64 212 1.0 0.0 0.00 0.00 0.00 78 1014.3
20210927172247 64 212 1.0 0.0 0.00 0.00 0.00 79 1014.4
20210927171248 64 213 1.0 0.0 0.00 0.00 0.00 79 1014.6
20210927170740 64 213 0.0 0.0 0.00 0.00 0.00 80 1014.6
20210927170237 64 213 0.0 0.0 0.00 0.00 0.00 80 1014.6
20210927165743 64 214 0.0 0.0 0.00 0.00 0.00 80 1014.4
20210927165253 64 213 0.0 0.0 0.00 0.00 0.00 79 1014.4
20210927163252 64 213 0.0 0.0 0.00 0.00 0.00 78 1014.3
20210927163137 64 213 0.0 0.0 0.00 0.00 0.00 78 1014.3
20210927161743 64 213 1.0 0.0 0.00 0.00 0.00 77 1014.3
20210927161254 64 213 0.0 0.0 0.00 0.00 0.00 77 1014.7
20210927160742 64 213 0.0 0.0 0.00 0.00 0.00 77 1014.7
20210927160132 64 213 0.0 0.0 0.00 0.00 0.00 77 1014.7
20210927155754 64 213 0.0 0.0 0.00 0.00 0.00 77 1014.8
20210927154739 65 213 0.0 0.0 0.00 0.00 0.00 76 1014.8
20210927153238 65 213 1.0 0.0 0.00 0.00 0.00 75 1014.9
20210927152746 65 213 1.0 0.0 0.00 0.00 0.00 75 1014.9
20210927151749 66 213 0.0 0.0 0.00 0.00 0.00 74 1014.9
20210927150237 66 213 0.0 0.0 0.00 0.00 0.00 74 1015.1
20210927150141 66 213 0.0 0.0 0.00 0.00 0.00 74 1015.1
20210927145740 66 213 0.0 0.0 0.00 0.00 0.00 74 1015.2
20210927145255 66 213 0.0 0.0 0.00 0.00 0.00 74 1015.2
20210927143749 66 213 1.0 0.0 0.00 0.00 0.00 74 1015.3
20210927142750 66 214 1.0 0.0 0.00 0.00 0.00 74 1015.4
20210927140146 66 214 0.0 0.0 0.00 0.00 0.00 73 1015.5
20210927135239 66 214 1.0 0.0 0.00 0.00 0.00 73 1015.4
20210927134751 66 214 1.0 0.0 0.00 0.00 0.00 73 1015.4
20210927133748 66 214 1.0 0.0 0.00 0.00 0.00 73 1015.6
20210927133247 66 214 1.0 0.0 0.00 0.00 0.00 73 1015.6
20210927133131 66 214 1.0 0.0 0.00 0.00 0.00 73 1015.6
20210927132748 66 214 0.0 0.0 0.00 0.00 0.00 73 1015.5
20210927130141 67 214 1.0 0.0 0.00 0.00 0.00 71 1015.5
20210927125742 67 230 0.0 0.0 0.00 0.00 0.00 71 1015.5
20210927124237 67 230 0.0 0.0 0.00 0.00 0.00 71 1015.5
20210927123747 67 230 0.0 0.0 0.00 0.00 0.00 71 1015.5
20210927123243 67 233 0.0 0.0 0.00 0.00 0.00 70 1015.5
20210927123131 67 233 0.0 0.0 0.00 0.00 0.00 70 1015.5
20210927122748 67 233 0.0 0.0 0.00 0.00 0.00 70 1015.5
20210927121236 67 276 1.0 0.0 0.00 0.00 0.00 68 1015.4
20210927120748 67 271 2.0 0.0 0.00 0.00 0.00 68 1015.4
20210927115754 68 282 0.0 0.0 0.00 0.00 0.00 66 1015.2
20210927114736 68 276 2.0 0.0 0.00 0.00 0.00 65 1015.2
20210927114239 68 276 3.0 0.0 0.00 0.00 0.00 65 1015.2
20210927113245 68 289 4.0 0.0 0.00 0.00 0.00 64 1015.2
20210927112243 68 282 4.0 0.0 0.00 0.00 0.00 63 1014.9
20210927111254 68 302 3.0 0.0 0.00 0.00 0.00 61 1014.8
20210927110749 68 299 4.0 0.0 0.00 0.00 0.00 61 1014.8
20210927110245 68 288 5.0 0.0 0.00 0.00 0.00 61 1014.8
20210927110130 68 300 5.0 0.0 0.00 0.00 0.00 61 1014.8
20210927105238 69 293 4.0 0.0 0.00 0.00 0.00 61 1014.8
20210927104749 69 296 4.0 0.0 0.00 0.00 0.00 61 1014.8
20210927103247 69 302 4.0 0.0 0.00 0.00 0.00 61 1014.8
20210927102243 69 284 4.0 0.0 0.00 0.00 0.00 61 1014.5
20210927101739 69 268 4.0 0.0 0.00 0.00 0.00 61 1014.5
20210927100740 69 281 5.0 0.0 0.00 0.00 0.00 62 1014.4
20210927100239 69 303 5.0 0.0 0.00 0.00 0.00 63 1014.4
20210927100142 69 296 5.0 0.0 0.00 0.00 0.00 63 1014.4
20210927095747 69 308 4.0 0.0 0.00 0.00 0.00 65 1014.2
20210927095237 69 302 2.0 0.0 0.00 0.00 0.00 66 1014.2
20210927094236 69 281 1.0 0.0 0.00 0.00 0.00 66 1014.0
20210927093244 69 269 0.0 0.0 0.00 0.00 0.00 66 1014.0
20210927093147 69 257 0.0 0.0 0.00 0.00 0.00 65 1014.0
20210927092253 69 237 0.0 0.0 0.00 0.00 0.00 65 1013.8
20210927091736 69 237 0.0 0.0 0.00 0.00 0.00 65 1013.8
20210927091252 69 237 0.0 0.0 0.00 0.00 0.00 64 1013.7
20210927090255 70 257 0.0 0.0 0.00 0.00 0.00 63 1013.8
20210927085740 70 257 0.0 0.0 0.00 0.00 0.00 63 1013.8
20210927084741 70 264 0.0 0.0 0.00 0.00 0.00 62 1013.8
20210927084251 71 264 0.0 0.0 0.00 0.00 0.00 62 1013.7
20210927083137 71 261 0.0 0.0 0.00 0.00 0.00 61 1013.8
20210927082749 71 261 0.0 0.0 0.00 0.00 0.00 61 1013.6
20210927081748 71 261 1.0 0.0 0.00 0.00 0.00 60 1013.6
20210927081238 71 261 1.0 0.0 0.00 0.00 0.00 59 1013.7
20210927080746 72 268 1.0 0.0 0.00 0.00 0.00 59 1013.7
20210927080237 72 255 1.0 0.0 0.00 0.00 0.00 59 1013.7
20210927080142 72 255 1.0 0.0 0.00 0.00 0.00 59 1013.7
20210927075742 72 281 2.0 0.0 0.00 0.00 0.00 59 1013.7
20210927074254 72 267 2.0 0.0 0.00 0.00 0.00 59 1013.7
20210927073743 72 269 2.0 0.0 0.00 0.00 0.00 59 1013.7
20210927073237 72 250 2.0 0.0 0.00 0.00 0.00 59 1013.7
20210927073141 72 284 1.0 0.0 0.00 0.00 0.00 59 1013.7
20210927072740 73 247 2.0 0.0 0.00 0.00 0.00 59 1013.7
20210927072252 73 260 3.0 0.0 0.00 0.00 0.00 59 1013.7
20210927071747 73 245 2.0 0.0 0.00 0.00 0.00 59 1013.7
20210927070247 73 243 2.0 0.0 0.00 0.00 0.00 58 1013.7
20210927063749 74 221 2.0 0.0 0.00 0.00 0.00 56 1013.6
20210927063139 74 269 3.0 0.0 0.00 0.00 0.00 56 1013.6
20210927062740 74 238 4.0 0.0 0.00 0.00 0.00 56 1013.6
20210927061743 75 213 2.0 0.0 0.00 0.00 0.00 55 1013.6
20210927061251 75 224 3.0 0.0 0.00 0.00 0.00 54 1013.6
20210927060749 75 204 2.0 0.0 0.00 0.00 0.00 54 1013.6
20210927060137 75 212 2.0 0.0 0.00 0.00 0.00 56 1013.6
20210927055740 75 244 3.0 0.0 0.00 0.00 0.00 55 1013.6
20210927055245 75 209 3.0 0.0 0.00 0.00 0.00 55 1013.6
20210927054739 75 217 3.0 0.0 0.00 0.00 0.00 54 1013.6
20210927054252 74 255 2.0 0.0 0.00 0.00 0.00 55 1013.6
20210927053134 74 209 3.0 0.0 0.00 0.00 0.00 56 1013.6
20210927052735 74 185 3.0 0.0 0.00 0.00 0.00 56 1013.6
20210927052245 74 206 2.0 0.0 0.00 0.00 0.00 56 1013.6
20210927050743 73 199 3.0 0.0 0.00 0.00 0.00 58 1013.7
20210927045740 73 172 3.0 0.0 0.00 0.00 0.00 59 1013.8
20210927045250 73 180 3.0 0.0 0.00 0.00 0.00 59 1013.8
20210927044235 72 173 4.0 0.0 0.00 0.00 0.00 59 1014.0
20210927043745 73 190 4.0 0.0 0.00 0.00 0.00 59 1014.0
20210927043244 73 185 3.0 0.0 0.00 0.00 0.00 59 1014.0
20210927042750 73 192 2.0 0.0 0.00 0.00 0.00 59 1014.0
20210927041755 72 190 3.0 0.0 0.00 0.00 0.00 60 1014.0
20210927040142 72 206 4.0 0.0 0.00 0.00 0.00 62 1014.0
20210927035739 72 190 4.0 0.0 0.00 0.00 0.00 61 1014.3
20210927034745 72 199 4.0 0.0 0.00 0.00 0.00 60 1014.3
20210927033745 72 216 3.0 0.0 0.00 0.00 0.00 60 1014.4
20210927033249 72 224 4.0 0.0 0.00 0.00 0.00 61 1014.4
20210927031737 71 197 4.0 0.0 0.00 0.00 0.00 62 1014.6
20210927025237 71 188 3.0 0.0 0.00 0.00 0.00 61 1014.8
20210927023750 72 196 3.0 0.0 0.00 0.00 0.00 59 1014.9
20210927023135 72 214 3.0 0.0 0.00 0.00 0.00 59 1014.9
20210927022737 71 200 3.0 0.0 0.00 0.00 0.00 61 1015.1
20210927022245 71 197 4.0 0.0 0.00 0.00 0.00 61 1015.1
20210927021246 70 206 4.0 0.0 0.00 0.00 0.00 62 1015.3
20210927020740 70 202 4.0 0.0 0.00 0.00 0.00 62 1015.3
20210927015745 70 206 3.0 0.0 0.00 0.00 0.00 65 1015.6
20210927014748 69 202 4.0 0.0 0.00 0.00 0.00 64 1015.6
20210927014238 69 226 3.0 0.0 0.00 0.00 0.00 65 1015.8
20210927013747 69 195 3.0 0.0 0.00 0.00 0.00 67 1015.8
20210927012754 68 200 3.0 0.0 0.00 0.00 0.00 68 1015.9
20210927010241 67 190 2.0 0.0 0.00 0.00 0.00 68 1015.8
20210927005238 67 206 3.0 0.0 0.00 0.00 0.00 68 1015.9
20210927003252 66 203 1.0 0.0 0.00 0.00 0.00 69 1015.9
20210927002739 66 221 1.0 0.0 0.00 0.00 0.00 70 1015.9
20210927002245 66 257 1.0 0.0 0.00 0.00 0.00 71 1015.9
20210927001740 66 192 1.0 0.0 0.00 0.00 0.00 71 1015.9
20210927001251 66 200 1.0 0.0 0.00 0.00 0.00 71 1015.9
20210927000134 66 220 1.0 0.0 0.00 0.00 0.00 71 1015.9
20210926235246 66 234 0.0 0.0 0.00 0.00 0.00 71 1016.1
20210926234740 66 262 0.0 0.0 0.00 0.00 0.00 71 1016.1
20210926234250 66 224 0.0 0.0 0.00 0.00 0.00 71 1016.0
20210926233740 66 204 0.0 0.0 0.00 0.00 0.00 71 1016.0
20210926232745 66 203 0.0 0.0 0.00 0.00 0.00 71 1016.0
20210926231238 65 200 0.0 0.0 0.00 0.00 0.00 72 1016.1
20210926230134 65 199 0.0 0.0 0.00 0.00 0.00 72 1016.1
20210926225736 65 193 1.0 0.0 0.00 0.00 0.00 72 1016.0
20210926225246 65 196 1.0 0.0 0.00 0.00 0.00 73 1016.0
20210926224250 64 193 1.0 0.0 0.00 0.00 0.00 73 1016.0
20210926223238 64 195 1.0 0.0 0.00 0.00 0.00 74 1016.0
20210926223146 64 175 0.0 0.0 0.00 0.00 0.00 74 1016.0
20210926222744 64 183 0.0 0.0 0.00 0.00 0.00 74 1016.0
20210926221748 63 183 1.0 0.0 0.00 0.00 0.00 75 1016.0
20210926221238 63 183 1.0 0.0 0.00 0.00 0.00 75 1016.0
20210926220249 62 172 2.0 0.0 0.00 0.00 0.00 76 1016.0
20210926220133 62 175 2.0 0.0 0.00 0.00 0.00 76 1016.0
20210926215244 62 180 2.0 0.0 0.00 0.00 0.00 76 1016.0
20210926213736 61 180 2.0 0.0 0.00 0.00 0.00 78 1016.0
20210926213254 61 172 2.0 0.0 0.00 0.00 0.00 78 1016.0
20210926213138 61 165 2.0 0.0 0.00 0.00 0.00 78 1016.0
20210926210234 61 183 1.0 0.0 0.00 0.00 0.00 78 1015.8
20210926210140 61 183 1.0 0.0 0.00 0.00 0.00 78 1015.8
20210926205248 61 180 0.0 0.0 0.00 0.00 0.00 78 1015.8
20210926203242 61 173 2.0 0.0 0.00 0.00 0.00 79 1015.8
20210926203146 61 172 2.0 0.0 0.00 0.00 0.00 79 1015.8
20210926202748 61 165 2.0 0.0 0.00 0.00 0.00 79 1015.5
20210926202239 61 173 2.0 0.0 0.00 0.00 0.00 79 1015.5
20210926201248 61 175 1.0 0.0 0.00 0.00 0.00 79 1015.5
20210926200134 61 179 2.0 0.0 0.00 0.00 0.00 80 1015.5
20210926195736 61 178 2.0 0.0 0.00 0.00 0.00 80 1015.5